Weather History for VDPP - January, 2014

Change the Weather History Date:

Sunday, January 5, 2014

  Actual Average Record
Temperature  
Mean Temperature 81 °F -  
Max Temperature 87 °F 86 °F 93 °F (2000)
Min Temperature 75 °F 72 °F 69 °F (2002)
Cooling Degree Days 16    
Growing Degree Days 31 (Base 50)    
Moisture  
Dew Point 66 °F    
Average Humidity 60    
Maximum Humidity 100    
Minimum Humidity 49    
Precipitation  
Precipitation 0.00 in - - ()
Sea Level Pressure  
Sea Level Pressure 29.82 in    
Wind  
Wind Speed 5 mph ()    
Max Wind Speed 13 mph    
Max Gust Speed -    
Visibility 5.4 miles    
Events      
Averages and records for this station are not official NWS values.
T = Trace of Precipitation, MM = Missing Value Source: Averaged Metar Reports

Daily Weather History Graph

Daily Weather History Graph

Search for Another Location

Airport or City:

Trip Planner

Search our weather history database for the weather conditions in past years. The results will help you decide how hot, cold, wet, or windy it might be!

Date:

Astronomy

Jan. 05, 2014 Rise Set
Actual Time 6:21 AM ICT 5:50 PM ICT
Civil Twilight 5:58 AM ICT 6:12 PM ICT
Nautical Twilight 5:32 AM ICT 6:39 PM ICT
Astronomical Twilight 5:06 AM ICT 7:05 PM ICT
Moon 9:30 AM ICT (1/5) 9:48 PM ICT (1/5)
Length of Visible Light 12h 14m
Length of Day
11h 28m
Waxing Crescent, 19% of the Moon is Illuminated
Jan 5
Waxing Crescent
Jan 8
First Quarter
Jan 16
Full
Jan 24
Last Quarter
Jan 31
New

Hourly Weather History & Observations

Time (ICT) Temp. Heat Index Dew Point Humidity Pressure Visibility Wind Dir Wind Speed Gust Speed Precip Events Conditions
12:00 AM 80.6 °F 83.2 °F 68.0 °F 65% 29.83 in 5.6 mi West 2.3 mph - N/A   Unknown
12:30 AM 80.6 °F 83.2 °F 68.0 °F 65% 29.83 in 5.6 mi WNW 3.5 mph - N/A   Unknown
1:00 AM 80.6 °F 83.2 °F 68.0 °F 65% 29.83 in 5.6 mi West 3.5 mph - N/A   Unknown
6:00 AM 75.2 °F - 64.4 °F 69% 29.83 in 5.6 mi NNE 5.8 mph - N/A   Unknown
7:00 AM 75.2 °F - 64.4 °F 69% 29.86 in 5.0 mi North 4.6 mph - N/A   Unknown
7:30 AM 75.2 °F - 64.4 °F 69% 29.86 in 5.0 mi NNE 6.9 mph - N/A   Unknown
8:00 AM 75.2 °F - 62.6 °F 65% 29.89 in 5.0 mi NNE 8.1 mph - N/A   Unknown
8:30 AM 77.0 °F - 62.6 °F 61% 29.89 in 5.0 mi NNE 9.2 mph - N/A   Unknown
9:00 AM 77.0 °F - 60.8 °F 57% 29.89 in 5.0 mi NNE 12.7 mph - N/A   Unknown
9:30 AM 78.8 °F - 62.6 °F 57% 29.89 in 5.6 mi NNE 10.4 mph - N/A   Unknown
10:00 AM 80.6 °F 81.8 °F 62.6 °F 54% 29.89 in 5.6 mi NNE 6.9 mph - N/A   Unknown
10:30 AM 80.6 °F 81.8 °F 62.6 °F 54% 29.89 in 5.6 mi ENE 8.1 mph - N/A   Unknown
11:00 AM 82.4 °F 83.4 °F 62.6 °F 51% 29.86 in 5.6 mi NNE 8.1 mph - N/A   Unknown
11:30 AM 82.4 °F 83.4 °F 62.6 °F 51% 29.86 in 5.6 mi North 4.6 mph - N/A   Unknown
12:00 PM 82.4 °F 83.9 °F 64.4 °F 54% 29.83 in 5.6 mi North 6.9 mph - N/A   Unknown
12:30 PM 82.4 °F 83.9 °F 64.4 °F 54% 29.83 in 5.6 mi NNW 5.8 mph - N/A   Unknown
1:00 PM 84.2 °F 103.5 °F 84.2 °F 100% 29.80 in 5.6 mi NW 5.8 mph - N/A   Unknown
1:30 PM 86.0 °F 88.2 °F 66.2 °F 51% 29.77 in 5.6 mi NE 10.4 mph - N/A   Unknown
2:00 PM 86.0 °F 88.2 °F 66.2 °F 51% 29.77 in 5.6 mi North 5.8 mph - N/A   Unknown
2:30 PM 86.0 °F 88.2 °F 66.2 °F 51% 29.77 in 5.6 mi NNE 9.2 mph - N/A   Unknown
3:00 PM 87.8 °F 90.4 °F 66.2 °F 49% 29.77 in 5.6 mi NE 11.5 mph - N/A   Unknown
3:30 PM 87.8 °F 90.4 °F 66.2 °F 49% 29.77 in 5.6 mi NNE 9.2 mph - N/A   Unknown
4:00 PM 87.8 °F 90.4 °F 66.2 °F 49% 29.77 in 5.6 mi North 6.9 mph - N/A   Unknown
5:30 PM 86.0 °F 89.4 °F 68.0 °F 55% 29.77 in 5.6 mi NNW 6.9 mph - N/A   Unknown
6:00 PM 84.2 °F 87.3 °F 68.0 °F 58% 29.77 in 5.6 mi NNW 5.8 mph - N/A   Unknown
6:30 PM 82.4 °F 85.4 °F 68.0 °F 62% 29.77 in 5.6 mi NNW 3.5 mph - N/A   Unknown
7:00 PM 84.2 °F 87.3 °F 68.0 °F 58% 29.77 in 5.0 mi WNW 2.3 mph - N/A   Unknown
7:30 PM 84.2 °F 87.3 °F 68.0 °F 58% 29.80 in 5.0 mi Calm Calm - N/A   Unknown
8:00 PM 82.4 °F 85.4 °F 68.0 °F 62% 29.80 in 5.0 mi Calm Calm - N/A   Unknown
8:30 PM 84.2 °F 86.6 °F 66.2 °F 55% 29.80 in 5.0 mi WNW 1.2 mph - N/A   Unknown
9:00 PM 82.4 °F 84.6 °F 66.2 °F 58% 29.80 in 5.0 mi West 2.3 mph - N/A   Unknown
9:30 PM 82.4 °F 85.4 °F 68.0 °F 62% 29.80 in 5.0 mi SSE 1.2 mph - N/A   Unknown
10:00 PM 80.6 °F 83.9 °F 69.8 °F 70% 29.80 in 5.0 mi South 5.8 mph - N/A   Unknown
10:30 PM 78.8 °F - 69.8 °F 74% 29.80 in 5.6 mi South 3.5 mph - N/A   Unknown
11:00 PM 78.8 °F - 69.8 °F 74% 29.80 in 5.6 mi SSW 1.2 mph - N/A   Unknown
11:30 PM 78.8 °F - 68.0 °F 69% 29.80 in 5.6 mi NW 3.5 mph - N/A   Unknown